Flag for Germany Weather past 2 weeks in Ravensburg, Baden-Württemberg, Germany

Now
63 °F

Light rain. Cloudy.


Feels Like: 63 °F
Forecast: 62 / 76 °F
Wind: 7 mph from West

Location: Friedrichshafen Airport

Current Time: Jul 22, 2014 at 9:27:24 AM

Latest Report: Jul 22, 2014 at 8:50 AM


Visibility: N/A

Pressure: 29.89 "Hg

Humidity: 88%

Dew point: 59 °F

Location of RavensburgLocation

Historic Weather in Ravensburg — Graph

°F

Ravensburg temperature yesterday

Maximum temperature yesterday: 66 °F (at 3:20 PM)
Minimum temperature yesterday: 59 °F (at 5:20 AM)
Average temperature yesterday: 62 °F

Past Weeks' High & Low Weather Summary

 TemperatureHumidityPressure
High91 °F (Jul 19, 4:50 PM)94% (Jul 8, 1:50 AM)30.21 "Hg (Jul 8, 1:50 AM)
Low50 °F (Jul 10, 7:20 AM)24% (Jul 19, 4:50 PM)29.83 "Hg (Jul 8, 4:50 AM)
Average65 °F70%29.99 "Hg
* Reported Jul 7 8:20 AM — Jul 22 8:20 AM, Ravensburg, Weather by CustomWeather, © 2014

Note: Actual official high and low records may vary slightly from our data, if they occured in-between our weather recording intervals... More about our weather records

Advertising

Ravensburg weather history for previous 24 hours

 ConditionsComfort  
Time TempWeatherWind HumidityBarometerVisibility
8:20 AM
Jul 22
63 °FLight rain. Cloudy.3 mph88%29.89 "Hg4 mi
7:50 AM63 °FRain. Mostly cloudy.6 mph88%29.89 "Hg3 mi
7:20 AM63 °FRain. Mostly cloudy.6 mph88%29.89 "Hg4 mi
6:50 AM61 °FRain. Mostly cloudy.13 mph94%29.86 "Hg4 mi
6:20 AM63 °FRain. Mostly cloudy.15 mph88%29.86 "Hg2 mi
5:50 AM63 °FHeavy rain. Mostly cloudy.14 mph88%29.89 "Hg3 mi
5:20 AM63 °FHeavy rain. Mostly cloudy.13 mph88%29.86 "Hg5 mi
5:01 AM61 °FHeavy rain. Mostly cloudy.13 mph94%29.89 "Hg5 mi
4:55 AM61 °FHeavy rain. Overcast.13 mph94%29.89 "Hg4 mi
4:20 AM63 °FRain. Overcast.12 mph88%29.89 "HgN/A
3:50 AM63 °FMild.7 mph88%29.89 "Hg5 mi
3:20 AM63 °FRain. Mostly cloudy.7 mph88%29.89 "HgN/A
2:50 AM63 °FLight rain. Mostly cloudy.6 mph88%29.89 "HgN/A
2:20 AM63 °FRain. Mostly cloudy.3 mph88%29.92 "HgN/A
1:50 AM61 °FRain. Mostly cloudy.2 mph88%29.92 "Hg2 mi
1:20 AM63 °FSprinkles. Low clouds.2 mph83%29.92 "HgN/A
12:50 AM63 °FSprinkles. Mostly cloudy.5 mph83%29.92 "HgN/A
12:20 AM63 °FLight rain. Mostly cloudy.6 mph83%29.95 "HgN/A
11:50 PM
Jul 21
63 °FLight rain. Mostly cloudy.6 mph88%29.95 "Hg5 mi
11:20 PM63 °FRain. Low clouds.6 mph83%29.95 "HgN/A
10:50 PM63 °FSprinkles. Low clouds.5 mph83%29.95 "HgN/A
10:20 PM63 °FSprinkles. Low clouds.5 mph83%29.95 "HgN/A
9:50 PM61 °FLight rain. Low clouds.6 mph88%29.95 "HgN/A
9:20 PM61 °FMore clouds than sun.6 mph88%29.95 "HgN/A
8:50 PM61 °FLight rain. Low clouds.5 mph88%29.95 "Hg5 mi
8:20 PM61 °FRain. Mostly cloudy.6 mph88%29.95 "Hg4 mi
7:50 PM61 °FRain. Mostly cloudy.3 mph88%29.95 "Hg3 mi
7:20 PM61 °FRain. Mostly cloudy.3 mph88%29.95 "Hg3 mi
6:50 PM61 °FRain. Mostly cloudy.3 mph88%29.95 "Hg3 mi
6:20 PM61 °FRain. Mostly cloudy.5 mph88%29.95 "Hg3 mi
5:50 PM63 °FRain. Mostly cloudy.5 mph83%29.95 "Hg3 mi
5:20 PM63 °FLight rain. Mostly cloudy.6 mph83%29.95 "HgN/A
4:50 PM63 °FLight rain. More clouds than sun.6 mph83%29.95 "HgN/A
4:20 PM63 °FSprinkles. Mostly cloudy.6 mph83%29.95 "HgN/A
3:50 PM63 °FSprinkles. Cloudy.7 mph83%29.95 "HgN/A
3:20 PM66 °FOvercast.6 mph68%29.95 "HgN/A
2:50 PM64 °FSprinkles. Overcast.7 mph73%29.95 "HgN/A
2:20 PM64 °FOvercast.7 mph73%29.95 "HgN/A
1:50 PM64 °FMore clouds than sun.8 mph68%29.95 "HgN/A
1:20 PM64 °FMostly cloudy.7 mph68%29.95 "HgN/A
12:50 PM64 °FMore clouds than sun.9 mph68%29.95 "HgN/A
12:20 PM64 °FOvercast.9 mph68%29.95 "HgN/A
11:50 AM64 °FOvercast.9 mph68%29.95 "HgN/A
11:20 AM63 °FMore clouds than sun.8 mph73%29.95 "HgN/A
10:20 AM63 °FPartly sunny.8 mph77%29.95 "HgN/A
9:50 AM63 °FMore clouds than sun.6 mph73%29.92 "HgN/A
9:20 AM63 °FBroken clouds.6 mph73%29.95 "HgN/A
Weather by CustomWeather, © 2014

See weather overviewHow to use our weather pages